#datint,netname,site,siteID,timestamp,IntT,BattV,AirT2,AirT,AirT_Avg,AirT_Max,AirT_Min,RH_Avg,RH_Max,RH_Min,EA_Avg,Td_Avg,Td_Max,Td_Min,WindS_Smp,WindS_Avg,WindD_Avg,WindD_SD,WindS_Max,ETo,ETr,SoilT4,SoilT8,SoilVWC8,SolarW_Avg,wetstate_Avg,wetT_Avg,Precip_accum,Precip_WPG,Precip_TB
15min,AgWx,beryljct,423,12JUL2019:00:00:00,68.5,12.97,70.6,68.7,69.7,73.0,67.1,31,36,25,0.733,37.3,39.2,35.1,6.73,5.8,190,12,7.7,0.00055,0.00080,71.0,70.0,10,0,.,.,16.03,0.00,0.00
15min,AgWx,beryljct,423,12JUL2019:00:15:00,68.3,12.95,68.5,68.9,68.4,70.0,66.8,32,36,29,0.766,37.7,39.0,35.8,3.288,4.4,189,13,7.3,0.00035,0.00054,70.7,70.0,10,0,.,.,16.03,0.00,0.00
15min,AgWx,beryljct,423,12JUL2019:00:30:00,67.4,12.96,62.0,61.4,64.2,68.9,59.6,45,57,32,0.804,41.8,44.7,37.2,5.546,3.3,213,87,6.5,0.00012,0.00021,70.5,70.0,10,0,.,.,16.04,0.01,0.00
15min,AgWx,beryljct,423,12JUL2019:00:45:00,65.8,12.95,61.5,62.3,62.1,64.1,60.1,41,48,36,0.773,38.2,40.4,35.8,6.62,3.7,315,20,6.6,0.00017,0.00028,70.2,69.9,9,0,.,.,16.03,0.00,0.00
15min,AgWx,beryljct,423,12JUL2019:01:00:00,64.9,12.94,63.9,64.3,63.9,66.1,61.1,37,44,32,0.761,36.9,38.8,35.6,2.28,3.1,354,35,6.3,0.00013,0.00024,69.9,69.9,9,0,.,.,16.03,0.00,0.00
15min,AgWx,beryljct,423,12JUL2019:01:15:00,64.1,12.92,60.4,58.6,61.8,65.2,57.8,43,54,33,0.792,38.6,41.6,35.7,5.393,3.8,331,48,5.9,0.00017,0.00029,69.6,69.8,9,0,.,.,16.04,0.00,0.00
15min,AgWx,beryljct,423,12JUL2019:01:30:00,63.2,12.93,63.7,61.9,61.9,63.8,58.7,38,47,33,0.751,36.2,40.2,33.9,1.644,4.2,295,45,6.2,0.00025,0.00039,69.4,69.8,10,0,.,.,16.04,0.00,0.00
15min,AgWx,beryljct,423,12JUL2019:01:45:00,62.6,12.92,63.8,62.7,61.6,63.5,59.5,42,52,36,0.736,38.5,41.9,35.9,0.658,1.9,308,33,5.3,-0.00007,-0.00006,69.1,69.7,10,0,.,.,16.04,0.00,0.00
15min,AgWx,beryljct,423,12JUL2019:02:00:00,62.5,12.92,65.4,63.1,63.2,66.1,61.1,41,52,34,0.863,38.7,43.7,36.5,1.535,3.5,332,57,5.9,0.00015,0.00026,68.9,69.7,9,0,.,.,16.04,0.00,0.00
15min,AgWx,beryljct,423,12JUL2019:02:15:00,62.5,12.92,61.6,61.3,62.5,64.1,60.7,47,56,39,0.927,41.9,46.0,38.9,0.153,1.1,70,36,5.3,-0.00020,-0.00027,68.6,69.6,10,0,.,.,16.04,0.00,0.00
15min,AgWx,beryljct,423,12JUL2019:02:30:00,62.2,12.91,60.9,61.8,59.8,61.8,57.9,51,59,43,0.818,41.8,44.3,38.9,1.863,2.4,312,20,4.7,-0.00003,-0.00000,68.3,69.5,9,0,.,.,16.04,0.00,0.00
15min,AgWx,beryljct,423,12JUL2019:02:45:00,61.7,12.91,59.0,60.1,59.8,61.7,58.4,54,62,45,0.913,43.2,45.8,39.9,2.828,1.1,285,5.0,3.7,-0.00021,-0.00028,68.0,69.4,10,0,.,.,16.04,0.00,0.00
15min,AgWx,beryljct,423,12JUL2019:03:00:00,61.3,12.9,58.8,59.8,59.7,61.9,58.0,51,62,40,0.818,41.5,45.0,37.2,2.236,2.7,307,9.6,4.6,0.00001,0.00005,67.8,69.3,10,0,.,.,16.04,0.00,0.00
15min,AgWx,beryljct,423,12JUL2019:03:15:00,61.0,12.9,57.6,57.0,59.6,61.3,56.9,47,58,38,0.904,39.2,42.7,35.4,2.981,2.8,333,25,4.9,0.00003,0.00009,67.6,69.2,10,0,.,.,16.04,0.00,0.00
15min,AgWx,beryljct,423,12JUL2019:03:30:00,60.4,12.88,58.8,57.9,58.2,59.6,56.3,53,62,46,0.853,41.1,43.7,38.7,0.066,1.1,148,4.6,4.0,-0.00020,-0.00028,67.3,69.1,10,0,.,.,16.05,0.00,0.00
15min,AgWx,beryljct,423,12JUL2019:03:45:00,59.4,12.89,56.5,56.0,57.0,58.1,55.7,54,59,49,0.845,40.3,42.1,38.8,3.836,2.1,186,18,4.7,-0.00008,-0.00007,67.1,69.0,9,0,.,.,16.05,0.00,0.00
15min,AgWx,beryljct,423,12JUL2019:04:00:00,58.6,12.89,52.1,54.3,57.0,60.5,54.3,52,65,40,0.933,39.6,42.8,36.3,3.025,2.2,211,9.4,5.8,-0.00005,-0.00004,66.8,69.0,10,0,.,.,16.05,0.00,0.00
15min,AgWx,beryljct,423,12JUL2019:04:15:00,57.6,12.89,57.3,56.3,55.0,57.0,52.9,60,70,51,0.788,41.3,43.5,38.4,0.526,1.2,193,34,3.6,-0.00019,-0.00026,66.6,68.9,9,0,.,.,16.04,0.00,0.00
15min,AgWx,beryljct,423,12JUL2019:04:30:00,56.9,12.88,56.2,54.4,54.9,56.7,53.1,61,75,50,0.870,41.6,45.5,38.0,1.096,0.6,155,0.5,2.3,-0.00028,-0.00041,66.4,68.8,10,0,.,.,16.05,0.01,0.00
15min,AgWx,beryljct,423,12JUL2019:04:45:00,56.4,12.88,55.2,54.4,55.0,59.0,53.0,63,75,48,0.988,42.6,45.2,38.7,0.351,0.5,166,4.8,1.1,-0.00028,-0.00041,66.2,68.7,10,0,.,.,16.05,0.00,0.00
15min,AgWx,beryljct,423,12JUL2019:05:00:00,56.1,12.88,53.1,53.1,54.5,55.5,53.1,71,77,65,0.995,45.2,47.3,43.7,2.346,1.0,123,13,3.0,-0.00023,-0.00032,65.9,68.6,9,0,.,.,16.05,0.00,0.00
15min,AgWx,beryljct,423,12JUL2019:05:15:00,55.9,12.86,54.4,54.0,53.2,54.3,52.6,71,75,63,0.944,44.1,45.2,42.0,0,1.3,116,1.0,2.9,-0.00019,-0.00026,65.7,68.5,10,0,.,.,16.05,0.00,0.00
15min,AgWx,beryljct,423,12JUL2019:05:30:00,55.7,12.86,52.6,53.3,54.1,55.0,53.3,70,78,60,1.075,44.5,46.5,41.4,0,0.0,117,0.0,0.5,-0.00034,-0.00054,65.5,68.4,10,0,.,.,16.05,0.00,0.00
15min,AgWx,beryljct,423,12JUL2019:05:45:00,55.7,12.86,52.4,52.5,53.9,55.1,52.5,71,81,62,1.093,44.7,47.0,42.2,1.337,1.4,117,0.5,2.7,0.00012,0.00020,65.3,68.3,9,0,.,.,16.05,0.00,0.00
15min,AgWx,beryljct,423,12JUL2019:06:00:00,55.7,12.85,53.0,53.0,53.1,53.6,52.4,82,84,78,1.149,47.6,48.4,46.2,0.548,1.2,116,1.3,4.9,0.00007,0.00011,65.1,68.2,9,0,.,.,16.05,0.01,0.00
15min,AgWx,beryljct,423,12JUL2019:06:15:00,55.7,12.86,54.4,54.6,53.4,54.8,52.5,78,85,67,0.983,46.6,48.7,43.5,1.688,0.4,124,0.1,1.8,0.00003,0.00005,64.9,68.1,10,1,.,.,16.05,0.00,0.00
15min,AgWx,beryljct,423,12JUL2019:06:30:00,55.7,12.85,54.9,54.6,54.1,54.8,53.6,70,75,61,0.919,44.4,46.0,41.4,0.877,1.0,124,0.3,2.4,0.00011,0.00017,64.7,68.0,10,4,.,.,16.05,0.00,0.00
15min,AgWx,beryljct,423,12JUL2019:06:45:00,55.9,12.86,54.8,54.3,54.4,55.2,53.9,66,71,56,0.971,43.3,44.9,39.8,3.244,2.3,128,6.5,3.9,0.00035,0.00052,64.6,67.9,10,24,.,.,16.05,0.00,0.00
15min,AgWx,beryljct,423,12JUL2019:07:00:00,56.2,12.88,58.4,57.6,55.8,57.6,54.3,60,68,55,0.886,42.3,44.0,40.7,3.179,3.2,165,9.9,4.5,0.00051,0.00076,64.4,67.8,10,30,.,.,16.05,0.00,0.00
15min,AgWx,beryljct,423,12JUL2019:07:15:00,56.8,12.91,58.1,58.6,58.8,59.8,57.6,49,55,45,0.909,39.7,42.1,37.9,1.096,3.0,175,2.6,4.5,0.00067,0.00100,64.2,67.7,9,41,.,.,16.05,0.00,0.00
15min,AgWx,beryljct,423,12JUL2019:07:30:00,57.2,12.97,55.1,55.8,56.5,58.5,55.6,65,73,54,1.064,44.9,47.6,42.2,0.219,0.3,198,24,1.2,0.00050,0.00055,64.1,67.6,10,72,.,.,16.04,0.00,0.00
15min,AgWx,beryljct,423,12JUL2019:07:45:00,58.1,12.97,58.7,58.5,56.5,58.5,55.3,72,80,63,1.067,47.5,49.5,45.7,1.096,0.2,243,0.0,1.1,0.00104,0.00111,64.0,67.5,10,193,.,.,16.04,0.00,0.00
15min,AgWx,beryljct,423,12JUL2019:08:00:00,59.8,13,61.6,60.7,59.7,60.7,58.5,62,66,56,1.118,46.6,48.5,44.4,0,0.4,271,19,1.1,0.00097,0.00107,63.8,67.4,9,155,.,.,16.04,0.00,0.00
15min,AgWx,beryljct,423,12JUL2019:08:15:00,61.3,13.05,61.4,61.3,60.8,61.3,60.4,69,74,58,1.297,50.4,52.2,46.3,0.592,1.6,42,93,2.8,0.00113,0.00130,63.7,67.3,9,164,.,.,16.04,0.00,0.00
15min,AgWx,beryljct,423,12JUL2019:08:30:00,63.0,13.18,66.3,65.7,62.8,65.7,61.2,65,71,51,1.127,50.6,52.8,46.8,0,1.0,106,0.1,2.3,0.00173,0.00191,63.7,67.2,10,278,.,.,16.04,0.00,0.00
15min,AgWx,beryljct,423,12JUL2019:08:45:00,65.5,13.33,66.3,66.5,66.2,66.6,65.7,54,58,51,1.215,49.0,51.2,47.4,1.337,0.5,104,1.1,1.4,0.00201,0.00219,63.7,67.1,9,317,.,.,16.03,0.00,0.00
15min,AgWx,beryljct,423,12JUL2019:09:00:00,68.8,13.42,69.9,69.7,68.1,69.8,66.5,53,60,40,1.055,50.3,52.5,44.3,1.71,1.3,113,16,4.3,0.00272,0.00303,63.7,67.0,9,417,.,.,16.03,0.00,0.00
15min,AgWx,beryljct,423,12JUL2019:09:15:00,71.3,13.57,72.5,72.1,70.4,72.1,69.4,41,48,35,0.987,45.4,48.8,41.6,3.354,3.4,143,11,4.7,0.00303,0.00366,63.8,66.9,9,407,.,.,16.03,0.00,0.00
15min,AgWx,beryljct,423,12JUL2019:09:30:00,73.2,13.56,73.0,72.4,72.2,72.4,71.8,41,49,36,1.148,47.1,51.8,43.7,5.327,3.1,148,6.6,8.2,0.00238,0.00294,63.9,66.9,9,278,.,.,16.02,0.00,0.00
15min,AgWx,beryljct,423,12JUL2019:09:45:00,74.6,13.56,73.9,74.1,73.7,74.2,72.5,40,45,34,1.149,47.9,50.4,44.3,3.946,3.6,128,18,5.4,0.00304,0.00373,64.0,66.8,9,370,.,.,16.02,0.00,0.00
15min,AgWx,beryljct,423,12JUL2019:10:00:00,75.1,13.41,72.2,72.5,73.7,74.3,72.5,43,53,35,1.329,49.7,55.4,45.2,3.617,3.4,124,7.9,6.0,0.00195,0.00252,64.3,66.7,9,187,.,.,16.02,0.00,0.00
15min,AgWx,beryljct,423,12JUL2019:10:15:00,74.7,13.45,71.9,72.2,72.2,73.0,71.6,50,56,42,1.430,52.5,55.0,48.2,4.691,3.2,46,45,4.7,0.00168,0.00215,64.5,66.6,9,168,.,.,16.02,0.00,0.00
15min,AgWx,beryljct,423,12JUL2019:10:30:00,74.3,14.05,75.4,73.5,72.4,73.5,71.8,53,67,44,1.457,54.4,60.4,49.9,3.025,2.4,163,30,5.1,0.00221,0.00261,64.7,66.5,9,273,.,.,16.02,0.00,0.00
15min,AgWx,beryljct,423,12JUL2019:10:45:00,76.8,13.98,80.3,80.3,77.7,80.3,73.7,37,50,29,1.038,49.1,53.8,44.8,5.502,4.1,160,23,8.2,0.00539,0.00634,64.9,66.5,9,718,.,.,16.01,0.00,0.00
15min,AgWx,beryljct,423,12JUL2019:11:00:00,79.8,13.94,81.4,81.6,81.1,82.1,80.2,28,33,25,1.007,45.3,49.0,42.3,7.168,7.2,161,11,10.2,0.00506,0.00655,65.1,66.5,9,542,.,.,16.01,0.00,0.00
15min,AgWx,beryljct,423,12JUL2019:11:15:00,82.1,13.89,83.0,83.7,82.7,83.7,81.5,25,28,23,0.907,43.6,45.7,41.0,6.599,5.6,150,9.1,7.5,0.00587,0.00725,65.3,66.4,9,700,.,.,16.01,0.00,0.00
15min,AgWx,beryljct,423,12JUL2019:11:30:00,85.6,13.8,84.5,85.6,84.8,85.9,83.7,24,29,22,1.125,44.5,49.4,41.5,6.182,5.2,141,12,8.5,0.00682,0.00823,65.6,66.4,9,838,.,.,16.00,0.00,0.00
15min,AgWx,beryljct,423,12JUL2019:11:45:00,88.0,13.84,83.9,84.2,85.4,86.1,84.2,26,30,20,1.176,46.7,51.2,40.2,11.05,7.1,141,22,11.5,0.00676,0.00844,65.9,66.4,9,774,.,.,16.00,0.00,0.00
15min,AgWx,beryljct,423,12JUL2019:12:00:00,88.3,13.77,88.9,86.0,84.0,86.0,83.2,29,34,25,1.092,48.4,52.3,43.9,5.086,7.6,139,10,11.5,0.00638,0.00805,66.2,66.3,9,730,.,.,16.00,0.00,0.00
15min,AgWx,beryljct,423,12JUL2019:12:15:00,89.2,13.81,86.8,87.2,86.5,87.3,85.9,25,29,22,0.983,46.1,49.7,43.1,10.65,7.6,157,19,12.9,0.00613,0.00788,66.6,66.3,9,637,.,.,16.00,0.00,0.00
15min,AgWx,beryljct,423,12JUL2019:12:30:00,88.9,13.82,78.9,80.2,83.8,87.1,80.2,29,36,23,1.193,47.6,51.3,43.6,8.33,7.9,203,23,12.0,0.00471,0.00634,67.0,66.3,9,423,.,.,16.00,0.00,0.00
15min,AgWx,beryljct,423,12JUL2019:12:45:00,87.3,13.81,81.3,81.3,81.1,83.0,79.8,34,39,24,1.238,49.8,53.1,42.1,3.551,5.7,229,17,10.7,0.00402,0.00516,67.4,66.3,9,410,.,.,16.00,0.00,0.00
15min,AgWx,beryljct,423,12JUL2019:13:00:00,86.8,13.41,82.9,84.2,82.9,84.6,81.2,33,40,22,1.047,50.3,55.4,42.0,6.883,6.1,222,26,10.6,0.00500,0.00629,67.7,66.3,9,545,.,.,16.01,0.01,0.00
15min,AgWx,beryljct,423,12JUL2019:13:15:00,86.3,13.43,80.2,80.8,81.5,84.1,80.7,33,38,26,1.265,50.0,52.8,45.6,5.524,5.9,228,14,8.8,0.00389,0.00506,68.0,66.4,9,378,.,.,16.01,0.00,0.00
15min,AgWx,beryljct,423,12JUL2019:13:30:00,85.6,13.44,84.8,84.2,81.9,84.2,80.3,33,40,28,1.149,50.0,54.0,44.9,8.05,5.8,221,18,10.4,0.00461,0.00582,68.3,66.4,9,504,.,.,16.01,0.01,0.00
15min,AgWx,beryljct,423,12JUL2019:13:45:00,86.8,13.39,87.5,86.6,84.9,86.6,84.0,29,34,24,1.180,49.5,53.6,44.9,5.217,8.6,221,17,13.8,0.00834,0.01028,68.5,66.5,9,1022,.,.,16.01,0.00,0.00
15min,AgWx,beryljct,423,12JUL2019:14:00:00,88.7,13.4,83.6,84.6,86.1,86.9,84.6,28,33,23,1.115,49.0,53.9,44.9,9.47,9.4,221,11,16.1,0.00822,0.01030,68.7,66.5,9,966,.,.,16.01,0.00,0.00
15min,AgWx,beryljct,423,12JUL2019:14:15:00,88.7,13.37,87.8,88.4,84.9,88.4,83.2,26,33,18,0.894,45.5,51.0,39.6,6.248,9.1,207,28,15.4,0.00626,0.00822,69.0,66.6,9,657,.,.,16.01,0.00,0.00
15min,AgWx,beryljct,423,12JUL2019:14:30:00,90.0,13.35,85.7,86.4,87.4,88.4,86.2,24,30,21,1.020,46.1,51.5,43.0,14.93,12.7,199,13,17.2,0.00906,0.01176,69.3,66.7,9,1010,.,.,16.01,0.00,0.00
15min,AgWx,beryljct,423,12JUL2019:14:45:00,90.0,13.37,87.4,87.1,86.1,87.8,85.0,25,30,21,1.038,46.0,50.4,42.5,7.366,9.0,199,15,14.9,0.00682,0.00883,69.6,66.7,9,741,.,.,16.00,0.00,0.00
15min,AgWx,beryljct,423,12JUL2019:15:00:00,90.3,13.33,86.9,88.1,87.7,89.5,86.5,24,29,17,1.140,46.4,50.5,38.8,3.683,7.8,216,26,14.7,0.00838,0.01035,70.0,66.8,10,994,.,.,16.00,0.00,0.00
15min,AgWx,beryljct,423,12JUL2019:15:15:00,91.1,13.34,85.2,86.9,88.4,89.7,86.9,25,38,17,1.088,47.2,59.2,38.1,13.48,9.3,203,27,15.6,0.00828,0.01047,70.3,66.9,9,950,.,.,16.01,0.00,0.00
15min,AgWx,beryljct,423,12JUL2019:15:30:00,91.4,13.33,85.0,85.5,87.0,89.0,85.0,27,35,18,1.083,48.3,54.4,40.1,5.853,6.4,243,26,13.1,0.00666,0.00826,70.7,67.0,10,786,.,.,16.00,0.00,0.00
15min,AgWx,beryljct,423,12JUL2019:15:45:00,90.9,13.3,89.2,89.7,87.0,89.7,85.1,21,26,18,0.841,42.5,48.4,38.8,5.656,5.6,228,35,14.2,0.00485,0.00626,71.1,67.1,9,518,.,.,16.01,0.00,0.00
15min,AgWx,beryljct,423,12JUL2019:16:00:00,91.4,13.34,84.7,85.9,88.1,89.9,85.6,23,31,17,1.267,45.4,51.5,38.3,6.314,5.0,193,36,11.1,0.00506,0.00637,71.5,67.1,9,561,.,.,16.00,0.00,0.00
15min,AgWx,beryljct,423,12JUL2019:16:15:00,91.6,13.31,86.7,85.4,86.7,87.7,85.4,26,30,23,1.100,47.8,51.1,44.5,11.29,11.0,220,15,18.5,0.00762,0.00994,71.9,67.2,9,846,.,.,16.01,0.01,0.00
15min,AgWx,beryljct,423,12JUL2019:16:30:00,90.7,13.31,84.0,84.0,85.7,87.5,83.7,24,30,18,1.066,44.7,49.2,39.1,11.14,10.2,207,20,15.6,0.00469,0.00676,72.2,67.4,9,364,.,.,16.01,0.00,0.00
15min,AgWx,beryljct,423,12JUL2019:16:45:00,89.2,13.39,83.5,83.9,84.0,85.7,82.3,26,33,20,1.028,45.6,50.2,39.8,9.05,8.8,225,17,14.3,0.00405,0.00579,72.6,67.5,9,323,.,.,16.01,0.00,0.00
15min,AgWx,beryljct,423,12JUL2019:17:00:00,88.1,13.41,82.7,83.9,83.9,85.0,82.9,27,31,22,1.166,46.3,49.3,42.0,8.26,9.0,221,19,13.7,0.00427,0.00604,72.8,67.6,9,380,.,.,16.01,0.00,0.00
15min,AgWx,beryljct,423,12JUL2019:17:15:00,88.0,13.43,82.8,84.5,85.3,86.9,83.7,24,30,19,1.027,44.5,49.4,39.0,10.92,9.5,202,14,16.3,0.00456,0.00650,73.0,67.7,9,409,.,.,16.01,0.00,0.00
15min,AgWx,beryljct,423,12JUL2019:17:30:00,87.2,13.43,83.2,81.3,82.8,84.3,81.2,28,33,24,1.136,46.7,49.3,43.8,9.78,9.0,223,11,15.1,0.00371,0.00540,73.1,67.8,9,304,.,.,16.01,0.00,0.00
15min,AgWx,beryljct,423,12JUL2019:17:45:00,86.3,13.47,83.7,83.2,82.7,84.1,81.4,28,32,23,1.034,46.1,48.8,41.7,9.67,8.4,218,13,13.3,0.00341,0.00501,73.2,68.0,9,281,.,.,16.02,0.01,0.00
15min,AgWx,beryljct,423,12JUL2019:18:00:00,85.6,13.47,82.7,81.4,82.6,83.4,81.0,27,33,24,1.097,45.4,49.3,42.7,9.56,9.6,234,16,14.6,0.00339,0.00515,73.2,68.1,9,245,.,.,16.02,0.00,0.00
15min,AgWx,beryljct,423,12JUL2019:18:15:00,85.2,13.46,83.2,81.9,82.6,83.5,81.3,28,33,24,1.049,45.7,49.1,43.2,8.53,9.7,220,12,13.6,0.00334,0.00511,73.3,68.2,9,272,.,.,16.01,0.00,0.00
15min,AgWx,beryljct,423,12JUL2019:18:30:00,84.8,13.35,81.7,81.6,81.9,82.9,81.0,27,30,25,0.953,44.8,46.6,43.0,9.36,8.9,218,14,11.8,0.00272,0.00435,73.2,68.3,9,158,.,.,16.01,0.00,0.00
15min,AgWx,beryljct,423,12JUL2019:18:45:00,83.9,13.34,80.8,80.6,81.2,81.9,80.6,28,31,25,1.090,44.9,46.9,42.9,7.19,7.5,226,8.9,11.6,0.00219,0.00357,73.2,68.5,9,121,.,.,16.02,0.00,0.00
15min,AgWx,beryljct,423,12JUL2019:19:00:00,83.4,13.36,80.9,80.7,81.1,81.7,80.1,29,34,27,1.130,46.1,49.1,44.1,5.239,6.3,221,6.8,9.8,0.00179,0.00295,73.2,68.6,9,160,.,.,16.02,0.00,0.00
15min,AgWx,beryljct,423,12JUL2019:19:15:00,83.1,13.28,80.8,80.3,81.1,82.3,80.2,29,32,25,1.020,45.4,48.1,42.7,6.686,7.6,219,8.4,12.2,0.00200,0.00336,73.1,68.7,9,151,.,.,16.01,0.00,0.00
15min,AgWx,beryljct,423,12JUL2019:19:30:00,82.5,13.21,79.4,79.5,80.5,81.2,79.5,28,33,26,1.115,44.9,47.7,43.3,4.384,7.0,217,6.0,10.2,0.00161,0.00285,73.0,68.8,9,113,.,.,16.02,0.01,0.00
15min,AgWx,beryljct,423,12JUL2019:19:45:00,82.1,13.18,81.6,82.2,80.7,82.3,79.5,29,33,25,0.966,45.5,48.0,42.9,7.037,5.7,202,9.4,8.2,0.00127,0.00230,72.9,68.9,10,105,.,.,16.02,0.00,0.00
15min,AgWx,beryljct,423,12JUL2019:20:00:00,82.1,13.16,83.2,82.5,83.0,84.0,81.8,24,27,22,0.980,42.8,44.9,40.8,5.656,5.2,176,12,8.5,0.00094,0.00196,72.7,68.9,10,64,.,.,16.02,0.00,0.00
15min,AgWx,beryljct,423,12JUL2019:20:15:00,81.8,13.13,78.0,78.5,80.6,82.5,78.5,30,36,24,1.195,45.9,50.3,41.6,2.828,3.8,172,29,6.0,0.00063,0.00096,72.6,69.0,9,31,.,.,16.02,0.00,0.00
15min,AgWx,beryljct,423,12JUL2019:20:30:00,81.0,13.11,80.1,80.5,80.1,80.9,78.5,30,36,27,1.009,45.5,49.1,43.5,2.653,3.1,163,4.9,4.1,0.00046,0.00072,72.5,69.1,10,17,.,.,16.02,0.00,0.00
15min,AgWx,beryljct,423,12JUL2019:20:45:00,80.1,13.09,79.8,79.7,80.2,80.9,79.6,28,30,26,0.980,44.2,46.3,42.5,1.951,2.3,170,0.6,3.0,0.00028,0.00048,72.4,69.1,10,8,.,.,16.02,0.00,0.00
15min,AgWx,beryljct,423,12JUL2019:21:00:00,79.3,13.08,77.3,78.3,79.4,80.0,78.3,28,30,26,0.990,43.2,45.7,41.4,3.179,2.6,178,11,3.8,0.00031,0.00053,72.3,69.2,10,2,.,.,16.02,0.00,0.00
15min,AgWx,beryljct,423,12JUL2019:21:15:00,78.4,13.07,77.4,77.8,76.7,78.2,74.4,33,44,28,0.983,45.5,51.8,42.1,4.362,2.8,196,6.9,4.5,0.00029,0.00048,72.1,69.3,10,0,.,.,16.02,0.00,0.00
15min,AgWx,beryljct,423,12JUL2019:21:30:00,77.7,13.07,74.1,77.3,78.4,79.2,77.1,27,33,26,1.010,42.1,46.3,40.5,1.25,1.7,177,1.3,4.2,0.00013,0.00025,72.0,69.3,10,0,.,.,16.02,0.00,0.00
15min,AgWx,beryljct,423,12JUL2019:21:45:00,76.7,13.06,78.7,78.8,76.1,78.9,74.0,32,43,24,0.850,43.9,50.5,39.3,4.099,3.1,200,26,4.9,0.00034,0.00055,71.8,69.3,9,0,.,.,16.02,0.00,0.00
15min,AgWx,beryljct,423,12JUL2019:22:00:00,75.8,13.05,75.3,74.1,75.7,79.0,71.7,34,46,25,1.002,44.7,50.5,40.2,3.486,4.1,216,14,5.4,0.00050,0.00077,71.7,69.4,10,0,.,.,16.02,0.00,0.00
15min,AgWx,beryljct,423,12JUL2019:22:15:00,75.0,13.05,76.6,76.0,75.4,76.1,74.4,31,35,29,0.915,43.1,44.6,41.7,2.324,3.6,184,10,5.0,0.00044,0.00068,71.5,69.4,10,0,.,.,16.03,0.00,0.00
15min,AgWx,beryljct,423,12JUL2019:22:30:00,74.6,13.03,74.2,74.6,75.4,76.2,74.1,33,39,29,1.017,44.1,47.7,41.9,3.201,2.2,169,5.0,3.2,0.00018,0.00032,71.3,69.4,10,0,.,.,16.02,0.00,0.00
15min,AgWx,beryljct,423,12JUL2019:22:45:00,74.5,13.03,73.9,73.4,75.7,76.7,73.4,32,39,29,1.062,43.8,46.8,41.7,4.209,4.0,192,15,5.1,0.00048,0.00074,71.1,69.4,10,0,.,.,16.03,0.00,0.00
15min,AgWx,beryljct,423,12JUL2019:23:00:00,74.3,13.02,78.1,77.0,75.4,77.0,72.6,32,41,28,0.891,43.4,47.6,41.6,4.669,4.6,215,3.2,5.3,0.00057,0.00085,70.9,69.4,9,0,.,.,16.03,0.00,0.00
15min,AgWx,beryljct,423,12JUL2019:23:15:00,74.6,13.02,75.5,75.6,76.6,78.1,75.5,31,34,26,0.990,43.5,45.4,40.6,5.13,5.1,217,4.2,6.0,0.00066,0.00097,70.8,69.4,10,0,.,.,16.03,0.00,0.00
15min,AgWx,beryljct,423,12JUL2019:23:30:00,74.7,13.01,75.7,76.6,76.2,76.8,75.7,31,33,30,0.955,43.6,44.4,42.6,2.477,4.7,207,2.6,5.8,0.00061,0.00090,70.6,69.4,10,0,.,.,16.03,0.00,0.00
15min,AgWx,beryljct,423,12JUL2019:23:45:00,74.1,13.01,69.5,68.3,71.1,76.7,68.2,46,52,31,1.172,48.7,51.1,43.7,1.841,2.8,86,41,6.6,0.00021,0.00034,70.4,69.4,9,0,.,.,16.03,0.00,0.00
15min,AgWx,beryljct,423,13JUL2019:00:00:00,72.7,12.99,65.7,68.0,67.9,69.0,66.3,51,58,45,1.160,48.8,51.2,46.4,1.425,1.0,48,53,2.1,-0.00008,-0.00010,70.2,69.3,10,0,.,.,16.03,0.00,0.00
15min,AgWx,beryljct,423,13JUL2019:00:15:00,71.2,12.98,65.2,67.6,67.9,69.3,66.4,47,54,38,1.081,46.6,49.5,42.2,0,1.1,332,0.1,2.4,-0.00006,-0.00006,70.1,69.4,10,0,.,.,16.03,0.00,0.00
15min,AgWx,beryljct,423,13JUL2019:00:30:00,70.4,12.98,71.8,72.2,70.4,72.3,67.0,38,49,33,0.922,43.2,47.1,41.4,2.696,2.2,267,3.9,3.3,0.00014,0.00026,69.9,69.3,10,0,.,.,16.03,0.00,0.00
15min,AgWx,beryljct,423,13JUL2019:00:45:00,70.2,12.97,70.6,67.4,69.6,73.2,66.3,45,61,30,1.095,46.4,52.8,40.0,3.727,2.7,259,54,8.6,0.00019,0.00032,69.7,69.3,10,0,.,.,16.03,0.00,0.00
15min,AgWx,bigpiney,439,12JUL2019:00:00:00,59.0,12.79,54.1,54.3,55.2,56.8,53.5,59,65,54,0.867,41.0,42.0,40.4,2.981,3.7,239,48,6.2,0.00007,0.00013,53.2,50.1,54,0,0,0.0,3.96,0.00,0.00
15min,AgWx,bigpiney,439,12JUL2019:00:15:00,58.3,12.78,55.3,55.3,54.7,55.6,53.7,57,61,54,0.804,39.8,41.0,38.8,3.332,3.7,310,17,4.7,0.00008,0.00014,53.2,50.1,54,0,0,0.0,3.96,0.00,0.00
15min,AgWx,bigpiney,439,12JUL2019:00:30:00,57.7,12.77,53.4,53.3,53.9,55.3,53.1,57,59,54,0.799,39.1,39.4,38.7,2.981,3.3,284,16,4.1,0.00005,0.00010,53.2,50.1,54,0,0,0.0,3.96,0.00,0.00
15min,AgWx,bigpiney,439,12JUL2019:00:45:00,57.0,12.77,52.3,52.6,53.2,53.6,52.5,56,58,55,0.755,38.0,38.8,37.3,2.192,3.1,308,13,4.0,0.00004,0.00008,53.2,50.2,54,0,0,0.0,3.96,0.00,0.00
15min,AgWx,bigpiney,439,12JUL2019:01:00:00,56.3,12.76,47.9,51.7,52.6,53.3,51.7,55,58,52,0.748,36.7,37.6,35.9,3.003,1.3,263,37,3.0,-0.00012,-0.00015,53.2,50.2,54,0,0,0.0,3.96,0.00,0.00
15min,AgWx,bigpiney,439,12JUL2019:01:15:00,55.4,12.75,44.9,45.7,48.0,51.3,45.7,71,82,58,0.850,38.8,40.7,37.2,2.653,2.0,187,45,3.8,-0.00010,-0.00012,53.1,50.2,54,0,0,0.0,3.96,0.00,0.00
15min,AgWx,bigpiney,439,12JUL2019:01:30:00,54.3,12.74,44.3,44.3,44.6,45.6,44.2,84,85,82,0.837,40.0,40.5,39.7,2.433,2.8,214,6.6,3.7,-0.00010,-0.00011,53.1,50.2,54,0,0,0.0,3.96,0.00,0.00
15min,AgWx,bigpiney,439,12JUL2019:01:45:00,53.1,12.74,46.3,45.3,44.6,45.3,44.1,82,85,77,0.791,39.3,40.0,38.5,4.231,3.6,214,7.9,4.6,-0.00006,-0.00006,53.1,50.2,54,0,0,0.0,3.96,0.00,0.00
15min,AgWx,bigpiney,439,12JUL2019:02:00:00,52.1,12.72,48.8,47.8,46.7,47.8,45.4,74,77,73,0.822,38.9,39.8,38.3,1.688,3.1,247,13,4.6,-0.00005,-0.00004,53.1,50.2,54,0,0,0.0,3.96,0.00,0.00
15min,AgWx,bigpiney,439,12JUL2019:02:15:00,51.6,12.71,43.6,46.8,48.0,49.0,46.8,71,75,66,0.762,39.2,39.9,37.6,3.639,2.3,249,33,3.6,-0.00008,-0.00009,53.0,50.3,54,0,0,0.0,3.96,0.00,0.00
15min,AgWx,bigpiney,439,12JUL2019:02:30:00,51.1,12.7,43.5,43.7,45.6,47.3,43.7,73,79,68,0.766,37.5,38.3,37.2,2.105,2.3,177,19,4.4,-0.00008,-0.00009,53.0,50.3,54,0,0,0.0,3.96,0.00,0.00
15min,AgWx,bigpiney,439,12JUL2019:02:45:00,50.5,12.7,45.3,43.3,43.0,43.7,42.5,83,85,79,0.795,38.1,38.7,37.5,2.346,2.0,182,51,4.1,-0.00013,-0.00016,52.9,50.3,54,0,0,0.0,3.96,0.00,0.00
15min,AgWx,bigpiney,439,12JUL2019:03:00:00,49.8,12.69,43.3,43.9,44.1,44.4,43.3,78,83,77,0.754,37.7,38.6,37.3,3.003,2.7,210,8.6,3.9,-0.00008,-0.00009,52.9,50.4,54,0,0,0.0,3.96,0.00,0.00
15min,AgWx,bigpiney,439,12JUL2019:03:15:00,49.2,12.68,43.8,45.4,45.5,48.0,43.5,72,78,64,0.739,36.9,37.5,36.3,2.126,2.5,215,14,3.8,-0.00007,-0.00007,52.8,50.4,54,0,0,0.0,3.96,0.00,0.00
15min,AgWx,bigpiney,439,12JUL2019:03:30:00,48.9,12.67,43.4,42.9,43.7,45.3,42.9,79,82,72,0.766,37.6,38.4,36.8,3.047,1.5,221,27,3.0,-0.00014,-0.00019,52.7,50.3,54,0,0,0.0,3.96,0.00,0.00
15min,AgWx,bigpiney,439,12JUL2019:03:45:00,48.3,12.65,47.8,46.3,43.7,46.3,42.5,80,84,72,0.775,38.0,39.1,37.4,0.636,1.6,239,20,2.8,-0.00014,-0.00018,52.7,50.4,54,0,0,0.0,3.96,0.00,0.00
15min,AgWx,bigpiney,439,12JUL2019:04:00:00,47.9,12.64,40.9,41.2,45.9,48.3,41.2,69,82,63,0.719,36.4,38.0,35.5,2.718,1.3,155,39,2.9,-0.00014,-0.00019,52.6,50.4,54,0,0,0.0,3.96,0.00,0.00
15min,AgWx,bigpiney,439,12JUL2019:04:15:00,47.3,12.64,45.0,44.6,43.8,45.5,41.2,78,83,72,0.791,37.3,38.8,35.4,0,1.8,225,28,3.1,-0.00012,-0.00016,52.6,50.4,54,0,0,0.0,3.96,0.00,0.00
15min,AgWx,bigpiney,439,12JUL2019:04:30:00,46.9,12.63,47.5,46.9,45.9,47.4,44.6,72,79,64,0.721,37.3,38.6,35.9,0,0.8,273,12,3.0,-0.00019,-0.00027,52.5,50.4,54,0,0,0.0,3.96,0.00,0.00
15min,AgWx,bigpiney,439,12JUL2019:04:45:00,46.5,12.63,45.5,44.6,45.8,47.1,44.2,69,73,65,0.725,36.1,36.7,35.9,2.192,1.1,120,17,2.8,-0.00015,-0.00021,52.4,50.3,54,0,0,0.0,3.96,0.00,0.00
15min,AgWx,bigpiney,439,12JUL2019:05:00:00,46.2,12.61,42.5,42.7,43.5,46.1,42.6,75,80,66,0.724,36.1,37.3,34.9,3.464,2.8,194,21,4.5,-0.00006,-0.00007,52.4,50.4,54,0,0,0.0,3.96,0.00,0.00
15min,AgWx,bigpiney,439,12JUL2019:05:15:00,45.8,12.61,41.5,41.2,41.9,42.6,41.2,82,85,78,0.743,36.8,37.2,36.2,0.066,2.5,206,12,4.1,-0.00010,-0.00011,52.3,50.4,54,0,0,0.0,3.96,0.00,0.00
15min,AgWx,bigpiney,439,12JUL2019:05:30:00,45.6,12.6,41.8,42.0,41.9,42.4,41.1,85,87,83,0.765,37.6,38.5,36.9,1.754,2.1,257,13,4.8,-0.00012,-0.00015,52.2,50.4,54,0,0,0.0,3.96,0.00,0.00
15min,AgWx,bigpiney,439,12JUL2019:05:45:00,45.4,12.58,43.8,43.2,41.8,43.2,41.1,81,86,72,0.688,36.3,37.7,35.0,1.907,2.1,299,8.7,2.7,-0.00011,-0.00014,52.1,50.4,54,1,0,0.0,3.96,0.00,0.00
15min,AgWx,bigpiney,439,12JUL2019:06:00:00,45.2,12.59,39.9,39.5,42.2,44.2,39.5,75,84,70,0.693,35.0,35.3,34.5,2.411,1.9,248,41,3.1,-0.00010,-0.00012,52.0,50.4,54,4,0,0.0,3.96,0.00,0.00
15min,AgWx,bigpiney,439,12JUL2019:06:15:00,44.9,12.6,41.7,41.0,40.2,41.0,39.5,86,87,84,0.743,36.3,37.0,35.2,1.776,2.7,229,7.9,3.5,-0.00028,-0.00025,52.0,50.4,54,23,0,0.0,3.96,0.00,0.00
15min,AgWx,bigpiney,439,12JUL2019:06:30:00,44.8,12.61,41.0,40.8,41.5,42.4,40.8,83,86,80,0.743,36.8,37.2,36.4,1.556,1.4,202,24,3.2,-0.00019,-0.00017,51.9,50.4,54,50,0,0.0,3.96,0.00,0.00
15min,AgWx,bigpiney,439,12JUL2019:06:45:00,45.0,12.63,43.3,42.8,42.0,42.8,40.8,84,86,83,0.792,37.6,38.6,36.9,0.351,1.0,207,15,1.9,-0.00004,-0.00002,51.8,50.4,54,84,0,0.0,3.96,0.00,0.00
15min,AgWx,bigpiney,439,12JUL2019:07:00:00,46.0,12.63,45.3,45.1,44.1,45.1,42.8,85,86,83,0.842,40.0,41.1,38.5,0.745,0.9,303,42,1.7,0.00016,0.00019,51.7,50.4,54,120,0,0.0,3.96,0.00,0.00